User: anonymous   Login
Location: Gipe Farm
(40.9466°N, 95.5370°W)
Time: 05:27:42
(UTC-05:00)
Language:

Cosmos 2082 Rocket - Orbit

View from above orbital plane
View from above orbital plane
View from above satellite
View from above satellite

Ground track
Ground track

The orbit data is extracted from the following two-line orbital elements,

1 20625U 90046B   16125.86596454  .00000220  00000-0  13930-3 0  9999
2 20625  70.9983 286.1036 0013969 359.6665 102.8413 14.14594798340094
Epoch (UTC): 04 May 2016 20:46:59
Eccentricity: 0.0013969
inclination: 70.9983°
perigee height: 833 km
apogee height: 854 km
right ascension of ascending node: 286.1036°
argument of perigee: 359.6665°
revolutions per day: 14.14594798
mean anomaly at epoch: 102.8413°
orbit number at epoch: 34009

The dashed part of the orbit path shows where the satellite is in the earth's shadow,  

DLR